Weather History for KMIB - April, 2013

Change the Weather History Date:

Wednesday, April 17, 2013

  Actual Average (KMOT) Record (KMOT)
Temperature  
Mean Temperature 23 °F 44 °F  
Max Temperature 29 °F 56 °F 86 °F (1906)
Min Temperature 17 °F 33 °F 8 °F (1953)
Degree Days  
Heating Degree Days 42 21  
Month to date heating degree days 421  
Since 1 July heating degree days 8136  
Cooling Degree Days 0 0  
Month to date cooling degree days 0  
Year to date cooling degree days 0  
Moisture  
Dew Point 21 °F    
Average Humidity 93    
Maximum Humidity 100    
Minimum Humidity 74    
Precipitation  
Precipitation 0.00 in 0.04 in 0.66 in (1986)
Month to date precipitation 0.54  
Year to date precipitation 2.29  
Snow  
Snow 0.00 in - - ()
Snow Depth 4.00 in    
Sea Level Pressure  
Sea Level Pressure 30.39 in    
Wind  
Wind Speed 6 mph (NW)    
Max Wind Speed 14 mph    
Max Gust Speed -    
Visibility 7 miles    
Events Fog , Snow    
T = Trace of Precipitation, MM = Missing Value Source: NWS Daily Summary

Daily Weather History Graph

Daily Weather History Graph

Search for Another Location

Airport or City:

Trip Planner

Search our weather history database for the weather conditions in past years. The results will help you decide how hot, cold, wet, or windy it might be!

Date:

Astronomy

Apr. 17, 2013 Rise Set
Actual Time 6:50 AM CDT 8:39 PM CDT
Civil Twilight 6:17 AM CDT 9:13 PM CDT
Nautical Twilight 5:36 AM CDT 9:54 PM CDT
Astronomical Twilight 4:52 AM CDT 10:39 PM CDT
Moon 11:57 AM CDT (4/17) 2:28 AM CDT (4/17)
Length of Visible Light 14h 55m
Length of Day
13h 49m
Waxing Crescent, 42% of the Moon is Illuminated
Apr 17
Waxing Crescent
Apr 18
First Quarter
Apr 25
Full
May 2
Last Quarter
May 9
New

Hourly Weather History & Observations

Time (CDT) Temp. Windchill Dew Point Humidity Pressure Visibility Wind Dir Wind Speed Gust Speed Precip Events Conditions
12:55 AM 24.4 °F 18.6 °F 22.5 °F 92% 30.44 in 10.0 mi WNW 4.6 mph - 0.00 in   Overcast
1:55 AM 24.3 °F 19.9 °F 22.8 °F 94% 30.43 in 8.0 mi West 3.5 mph - 0.00 in Snow Light Snow
1:59 AM 24.8 °F 20.5 °F 23.0 °F 93% 30.43 in 6.0 mi West 3.5 mph - N/A Snow Light Snow
2:05 AM 24.8 °F 20.5 °F 23.0 °F 93% 30.43 in 4.0 mi West 3.5 mph - N/A Snow Light Snow
2:08 AM 24.8 °F 20.5 °F 23.0 °F 93% 30.43 in 4.0 mi West 3.5 mph - N/A Snow Light Snow
2:23 AM 24.8 °F 19.1 °F 23.0 °F 93% 30.44 in 4.0 mi WSW 4.6 mph - N/A Snow Light Snow
2:24 AM 24.8 °F 19.1 °F 23.0 °F 93% 30.44 in 5.0 mi West 4.6 mph - N/A   Overcast
2:40 AM 24.8 °F 19.1 °F 23.0 °F 93% 30.44 in 5.0 mi West 4.6 mph - N/A   Overcast
2:51 AM 24.8 °F 19.1 °F 23.0 °F 93% 30.44 in 9.0 mi West 4.6 mph - N/A   Overcast
2:55 AM 23.9 °F 19.5 °F 22.6 °F 95% 30.44 in 9.0 mi WSW 3.5 mph - 0.00 in   Overcast
3:12 AM 24.8 °F 20.5 °F 23.0 °F 93% 30.44 in 8.0 mi WSW 3.5 mph - N/A   Overcast
3:21 AM 24.8 °F 19.1 °F 23.0 °F 93% 30.44 in 6.0 mi West 4.6 mph - N/A   Overcast
3:37 AM 24.8 °F - 23.0 °F 93% 30.43 in 5.0 mi Calm Calm - N/A   Overcast
3:38 AM 24.8 °F - 23.0 °F 93% 30.43 in 4.0 mi Calm Calm - N/A   Overcast
3:49 AM 24.8 °F 20.5 °F 23.0 °F 93% 30.42 in 3.0 mi WNW 3.5 mph - N/A Snow Light Snow
3:55 AM 23.9 °F 18.0 °F 23.0 °F 96% 30.42 in 4.0 mi WNW 4.6 mph - 0.00 in Snow Light Snow
4:49 AM 23.0 °F 17.0 °F 21.2 °F 93% 30.41 in 10.0 mi WNW 4.6 mph - N/A   Overcast
5:03 AM 21.2 °F 14.9 °F 21.2 °F 100% 30.41 in 10.0 mi NW 4.6 mph - N/A   Scattered Clouds
5:34 AM 19.4 °F 14.3 °F 17.6 °F 93% 30.42 in 10.0 mi WNW 3.5 mph - N/A   Mostly Cloudy
5:50 AM 17.6 °F 9.3 °F 15.8 °F 93% 30.41 in 10.0 mi WNW 5.8 mph - N/A   Overcast
5:55 AM 17.8 °F 12.5 °F 16.7 °F 96% 30.41 in 10.0 mi WNW 3.5 mph - N/A   Overcast
6:55 AM 18.9 °F 13.7 °F 17.8 °F 96% 30.40 in 10.0 mi WNW 3.5 mph - N/A   Overcast
7:24 AM 19.4 °F 14.3 °F 17.6 °F 93% 30.40 in 10.0 mi WNW 3.5 mph - N/A   Overcast
7:47 AM 19.4 °F 14.3 °F 17.6 °F 93% 30.39 in 10.0 mi WNW 3.5 mph - N/A   Overcast
7:55 AM 19.4 °F - 18.5 °F 96% 30.39 in 10.0 mi Calm Calm - N/A   Overcast
8:07 AM 19.4 °F 14.3 °F 19.4 °F 100% 30.40 in 10.0 mi West 3.5 mph - N/A   Overcast
8:09 AM 19.4 °F 14.3 °F 19.4 °F 100% 30.40 in 10.0 mi West 3.5 mph - N/A   Overcast
8:15 AM 19.4 °F 12.8 °F 19.4 °F 100% 30.40 in 10.0 mi West 4.6 mph - N/A   Overcast
8:25 AM 19.4 °F 12.8 °F 19.4 °F 100% 30.40 in 10.0 mi West 4.6 mph - N/A   Overcast
8:55 AM 21.4 °F 11.9 °F 20.7 °F 97% 30.39 in 10.0 mi WNW 8.1 mph - N/A   Overcast
9:27 AM 23.0 °F 13.9 °F 21.2 °F 93% 30.38 in 10.0 mi NW 8.1 mph - N/A   Overcast
9:31 AM 23.0 °F 13.1 °F 23.0 °F 100% 30.38 in 10.0 mi NW 9.2 mph - N/A   Overcast
9:46 AM 23.0 °F 13.1 °F 21.2 °F 93% 30.38 in 1.8 mi NNW 9.2 mph - N/A   Mostly Cloudy
9:47 AM 23.0 °F 12.4 °F 21.2 °F 93% 30.38 in 1.2 mi NNW 10.4 mph - N/A   Mostly Cloudy
9:48 AM 23.0 °F 12.4 °F 21.2 °F 93% 30.38 in 0.8 mi NNW 10.4 mph - N/A   Mostly Cloudy
9:49 AM 23.0 °F 13.1 °F 21.2 °F 93% 30.38 in 0.5 mi NNW 9.2 mph - N/A Fog Light Freezing Fog
9:50 AM 21.2 °F 10.9 °F 21.2 °F 100% 30.38 in 0.5 mi NNW 9.2 mph - N/A Fog Light Freezing Fog
9:51 AM 21.2 °F 10.9 °F 21.2 °F 100% 30.38 in 0.2 mi NNW 9.2 mph - N/A Fog Light Freezing Fog
9:54 AM 21.2 °F 10.1 °F 21.2 °F 100% 30.38 in 0.2 mi NNW 10.4 mph - N/A Fog Light Freezing Fog
9:55 AM 21.7 °F 10.8 °F 21.0 °F 97% 30.38 in 0.2 mi NNW 10.4 mph - N/A Fog Light Freezing Fog
9:56 AM 21.2 °F 10.9 °F 21.2 °F 100% 30.38 in 0.2 mi NW 9.2 mph - N/A Fog Light Freezing Fog
10:00 AM 21.2 °F 10.1 °F 21.2 °F 100% 30.38 in 0.2 mi NW 10.4 mph - N/A Fog Light Freezing Fog
10:02 AM 21.2 °F 10.1 °F 21.2 °F 100% 30.38 in 0.2 mi NW 10.4 mph - N/A Fog Light Freezing Fog
10:03 AM 21.2 °F 10.1 °F 21.2 °F 100% 30.38 in 0.5 mi NW 10.4 mph - N/A Fog Light Freezing Fog
10:04 AM 21.2 °F 10.9 °F 21.2 °F 100% 30.38 in 0.5 mi NW 9.2 mph - N/A Fog Light Freezing Fog
10:05 AM 21.2 °F 10.1 °F 21.2 °F 100% 30.39 in 0.5 mi NW 10.4 mph - N/A Fog Light Freezing Fog
10:07 AM 23.0 °F 12.4 °F 21.2 °F 93% 30.38 in 0.8 mi NW 10.4 mph - N/A   Mist
10:09 AM 23.0 °F 12.4 °F 21.2 °F 93% 30.38 in 1.0 mi NW 10.4 mph - N/A   Mist
10:10 AM 23.0 °F 12.4 °F 21.2 °F 93% 30.38 in 1.2 mi NW 10.4 mph - N/A   Overcast
10:11 AM 23.0 °F 13.1 °F 21.2 °F 93% 30.38 in 1.5 mi NW 9.2 mph - N/A   Overcast
10:13 AM 23.0 °F 13.1 °F 21.2 °F 93% 30.38 in 2.0 mi NW 9.2 mph - N/A   Overcast
10:16 AM 23.0 °F 13.1 °F 23.0 °F 100% 30.38 in 3.0 mi NW 9.2 mph - N/A   Overcast
10:45 AM 23.0 °F 13.1 °F 21.2 °F 93% 30.39 in 10.0 mi NW 9.2 mph - N/A   Overcast
10:47 AM 23.0 °F 13.1 °F 21.2 °F 93% 30.39 in 10.0 mi NW 9.2 mph - N/A   Overcast
10:55 AM 22.6 °F 12.6 °F 21.7 °F 96% 30.39 in 8.0 mi NW 9.2 mph - N/A   Overcast
11:24 AM 23.0 °F 13.1 °F 21.2 °F 93% 30.39 in 10.0 mi NW 9.2 mph - N/A   Overcast
11:41 AM 23.0 °F 15.8 °F 23.0 °F 100% 30.39 in 10.0 mi NNW 5.8 mph - N/A   Overcast
12:04 PM 24.8 °F 17.9 °F 23.0 °F 93% 30.40 in 10.0 mi North 5.8 mph - N/A   Overcast
12:45 PM 24.8 °F 16.9 °F 23.0 °F 93% 30.39 in 10.0 mi NW 6.9 mph - N/A   Overcast
12:55 PM 25.5 °F 16.9 °F 23.2 °F 91% 30.38 in 10.0 mi NW 8.1 mph - N/A   Overcast
1:09 PM 26.6 °F 18.2 °F 23.0 °F 86% 30.38 in 10.0 mi NW 8.1 mph - N/A   Overcast
1:15 PM 26.6 °F 17.5 °F 23.0 °F 86% 30.38 in 10.0 mi NNW 9.2 mph - N/A   Overcast
1:55 PM 26.6 °F 20.0 °F 22.6 °F 85% 30.37 in 10.0 mi North 5.8 mph - N/A   Overcast
2:18 PM 26.6 °F 16.8 °F 23.0 °F 86% 30.36 in 10.0 mi NNW 10.4 mph - N/A   Overcast
2:55 PM 27.9 °F 18.4 °F 21.2 °F 76% 30.35 in 10.0 mi North 10.4 mph - N/A   Overcast
3:34 PM 28.4 °F 18.5 °F 21.2 °F 74% 30.33 in 10.0 mi NNW 11.5 mph - N/A   Scattered Clouds
3:55 PM 27.7 °F 17.6 °F 21.4 °F 77% 30.33 in 10.0 mi NNW 11.5 mph - N/A   Clear
4:55 PM 28.4 °F 17.5 °F 21.7 °F 76% 30.31 in 10.0 mi NNW 13.8 mph - N/A   Clear
5:55 PM 29.7 °F 19.6 °F 23.5 °F 78% 30.31 in 10.0 mi NW 12.7 mph - N/A   Clear
6:55 PM 29.5 °F 20.4 °F 22.6 °F 76% 30.32 in 10.0 mi NW 10.4 mph - N/A   Clear
7:55 PM 28.6 °F 18.7 °F 23.2 °F 80% 30.32 in 10.0 mi NW 11.5 mph - N/A   Overcast
8:55 PM 25.3 °F 16.7 °F 21.4 °F 85% 30.33 in 10.0 mi NW 8.1 mph - N/A   Mostly Cloudy
9:55 PM 23.7 °F 13.3 °F 19.6 °F 84% 30.33 in 10.0 mi WNW 10.4 mph - N/A   Partly Cloudy
10:55 PM 22.8 °F 12.2 °F 18.5 °F 83% 30.32 in 10.0 mi WNW 10.4 mph - N/A   Clear
11:55 PM 21.6 °F 9.3 °F 18.3 °F 87% 30.31 in 10.0 mi WNW 12.7 mph - N/A   Clear